Location: Newark
(34.9500°N, 139.9667°E)
Time: 07:28:18
(UTC+00:00)

Vanguard 1 Rocket - Visible Passes

Search period start: 10 December 2019 00:00
Search period end: 20 December 2019 00:00
Orbit: 650 x 4226 km, 34.3° (Epoch: 09 December)

Date Brightness Start Highest point End Pass type
(mag) Time Alt. Az. Time Alt. Az. Time Alt. Az.
10 Dec 9.9 09:36:02 10° SW 09:57:06 45° SSE 10:01:53 38° ESE visible
10 Dec 10.2 12:07:48 10° WSW 12:19:10 40° WSW 12:19:10 40° WSW visible
11 Dec 10.5 08:22:51 10° SSW 08:43:23 35° SE 08:54:48 17° E visible
11 Dec 9.6 10:52:12 10° SW 11:12:06 64° S 11:12:06 64° S visible
11 Dec 11.0 13:26:01 10° W 13:29:23 18° W 13:29:23 18° W visible
12 Dec 9.8 09:37:15 10° SW 09:59:49 54° SSE 10:05:00 42° ESE visible
12 Dec 10.2 12:10:10 10° WSW 12:22:17 43° WSW 12:22:17 43° WSW visible
13 Dec 10.4 08:23:26 10° SSW 08:45:58 43° SSE 08:57:52 19° E visible
13 Dec 9.5 10:54:12 10° WSW 11:15:10 72° S 11:15:10 72° S visible
13 Dec 11.0 13:28:41 10° W 13:32:27 18° W 13:32:27 18° W visible
14 Dec 9.7 09:38:47 10° SW 10:02:28 62° SSE 10:08:02 46° ESE visible
14 Dec 10.2 12:12:40 10° W 12:25:20 44° W 12:25:20 44° W visible
15 Dec 10.3 08:24:28 10° SW 08:48:29 51° SSE 09:00:53 21° E visible
15 Dec 9.5 10:56:24 10° WSW 11:18:11 79° S 11:18:11 79° S visible
15 Dec 11.0 13:31:21 10° W 13:35:28 19° W 13:35:28 19° W visible
16 Dec 9.7 09:40:37 10° WSW 10:05:08 70° SSE 10:11:01 48° E visible
16 Dec 10.2 12:15:14 10° W 12:28:18 45° W 12:28:18 45° W visible
17 Dec 10.3 08:25:52 10° SW 08:50:56 59° SSE 09:03:50 22° E visible
17 Dec 9.5 10:58:46 10° WSW 11:21:07 83° SSW 11:21:07 83° SSW visible
17 Dec 11.0 13:34:00 10° W 13:38:24 20° W 13:38:24 20° W visible
18 Dec 9.7 09:42:41 10° WSW 10:07:47 77° SSE 10:13:56 50° E visible
18 Dec 10.2 12:17:50 10° W 12:31:13 46° W 12:31:13 46° W visible
19 Dec 10.3 08:27:35 10° SW 08:53:24 66° SSE 09:06:44 23° E visible
19 Dec 9.5 11:01:15 10° W 11:24:00 86° SW 11:24:00 86° SW visible
19 Dec 11.0 13:36:38 10° W 13:41:18 20° W 13:41:18 20° W visible
